Torna al catalogo

FENGYUN 1C DEB

AttivoSSO
NORAD 41823·DEBRIS·🇨🇳 China

Lanciato May 10, 1999 da Taiyuan Satellite Launch Center

Loading…

Prossimi Passaggi (prossime 24 ore)

TLE

AggiornatoSource: Space-Track

Epoca: Sep 14, 2026, 14:29 UTC

1 41823U 99025EYA 26257.60400630  .00001809  00000-0  77931-3 0  9992
2 41823  98.6998 323.5141 0054916 148.3391 212.1110 14.24979410512852

Traccia FENGYUN 1C DEB in tempo reale con AllMySat

Download on the App Store